Change the Weather History Date:

Sunday, June 8, 2014

  Actual Average (KCHS) Record (KCHS)
Temperature  
Mean Temperature 76 °F 78 °F  
Max Temperature 82 °F 87 °F 98 °F (1986)
Min Temperature 69 °F 68 °F 53 °F (1998)
Degree Days  
Heating Degree Days 0 0  
Month to date heating degree days 0  
Since 1 June heating degree days 0  
Since 1 July heating degree days 1975  
Cooling Degree Days 10 13  
Month to date cooling degree days 97  
Year to date cooling degree days 459  
Since 1 June cooling degree days 97  
Growing Degree Days 26 (Base 50)    
Moisture  
Dew Point 69 °F    
Average Humidity 78    
Maximum Humidity 89    
Minimum Humidity 61    
Precipitation  
Precipitation 0.00 in 0.17 in 4.61 in (1973)
Month to date precipitation 1.27  
Year to date precipitation 17.58  
Sea Level Pressure  
Sea Level Pressure 29.96 in    
Wind  
Wind Speed 4 mph (SE)    
Max Wind Speed 16 mph    
Max Gust Speed 21 mph    
Visibility 9 miles    
Events Rain    
T = Trace of Precipitation, MM = Missing Value Source: NWS Daily Summary

Daily Weather History Graph

Daily Weather History Graph

Search for Another Location

Airport or City:

Trip Planner

Search our weather history database for the weather conditions in past years. The results will help you decide how hot, cold, wet, or windy it might be!

Date:

Astronomy

Jun. 08, 2014 Rise Set
Actual Time 6:11 AM EDT 8:26 PM EDT
Civil Twilight 5:43 AM EDT 8:55 PM EDT
Nautical Twilight 5:08 AM EDT 9:29 PM EDT
Astronomical Twilight 4:31 AM EDT 10:07 PM EDT
Moon 3:56 PM EDT (6/8) 2:48 AM EDT (6/8)
Length of Visible Light 15h 11m
Length of Day
14h 14m
Waxing Gibbous, 77% of the Moon is Illuminated
Jun 8
Waxing Gibbous
Jun 13
Full
Jun 19
Last Quarter
Jun 27
New
Jul 5
First Quarter

Hourly Weather History & Observations

Time (EDT) Temp. Heat Index Dew Point Humidity Pressure Visibility Wind Dir Wind Speed Gust Speed Precip Events Conditions
12:15 AM 75.2 °F - 66.2 °F 73% 29.98 in 10.0 mi Calm Calm - 0.00 in   Clear
12:35 AM 75.2 °F - 66.2 °F 73% 29.99 in 10.0 mi SE 8.1 mph - 0.00 in   Clear
12:55 AM 75.2 °F - 68.0 °F 78% 29.98 in 10.0 mi ESE 5.8 mph - 0.00 in   Clear
1:15 AM 75.2 °F - 68.0 °F 78% 29.98 in 10.0 mi ESE 4.6 mph - 0.00 in   Clear
1:35 AM 75.2 °F - 68.0 °F 78% 29.98 in 10.0 mi Calm Calm - 0.00 in   Clear
1:55 AM 75.2 °F - 66.2 °F 73% 29.98 in 10.0 mi Calm Calm - 0.00 in   Clear
2:35 AM 75.2 °F - 68.0 °F 78% 29.98 in 10.0 mi Calm Calm - 0.00 in   Clear
2:55 AM 71.6 °F - 66.2 °F 83% 29.97 in 10.0 mi Calm Calm - 0.00 in   Clear
3:15 AM 73.4 °F - 68.0 °F 83% 29.97 in 10.0 mi Calm Calm - 0.00 in   Clear
3:35 AM 71.6 °F - 66.2 °F 83% 29.96 in 10.0 mi Calm Calm - 0.00 in   Clear
3:55 AM 73.4 °F - 69.8 °F 88% 29.96 in 10.0 mi Calm Calm - 0.00 in   Clear
4:15 AM 71.6 °F - 66.2 °F 83% 29.96 in 10.0 mi Calm Calm - 0.00 in   Clear
4:35 AM 71.6 °F - 66.2 °F 83% 29.96 in 8.0 mi Calm Calm - 0.00 in   Clear
4:55 AM 71.6 °F - 66.2 °F 83% 29.96 in 9.0 mi Calm Calm - 0.00 in   Clear
5:35 AM 69.8 °F - 66.2 °F 88% 29.96 in 7.0 mi Calm Calm - 0.00 in   Clear
5:55 AM 69.8 °F - 66.2 °F 88% 29.97 in 8.0 mi Calm Calm - 0.00 in   Clear
6:15 AM 69.8 °F - 66.2 °F 88% 29.97 in 9.0 mi Calm Calm - 0.00 in   Clear
6:35 AM 71.6 °F - 66.2 °F 83% 29.97 in 10.0 mi Calm Calm - 0.00 in   Clear
6:55 AM 69.8 °F - 66.2 °F 88% 29.98 in 8.0 mi Calm Calm - 0.00 in   Clear
7:15 AM 71.6 °F - 66.2 °F 83% 29.98 in 10.0 mi Calm Calm - 0.00 in   Clear
7:35 AM 71.6 °F - 66.2 °F 83% 29.98 in 9.0 mi Calm Calm - 0.00 in   Scattered Clouds
7:55 AM 75.2 °F - 69.8 °F 83% 29.98 in 8.0 mi Calm Calm - 0.00 in   Partly Cloudy
8:15 AM 78.8 °F - 69.8 °F 74% 29.97 in 9.0 mi ESE 4.6 mph - 0.00 in   Clear
8:35 AM 78.8 °F - 68.0 °F 69% 29.98 in 10.0 mi ESE 9.2 mph - 0.00 in   Scattered Clouds
8:55 AM 78.8 °F - 68.0 °F 69% 29.98 in 10.0 mi ESE 9.2 mph - 0.00 in   Scattered Clouds
9:15 AM 80.6 °F 83.2 °F 68.0 °F 65% 29.98 in 10.0 mi ESE 12.7 mph - 0.00 in   Mostly Cloudy
9:35 AM 80.6 °F 83.2 °F 68.0 °F 65% 29.98 in 10.0 mi SE 12.7 mph - 0.00 in   Overcast
9:55 AM 80.6 °F 83.2 °F 68.0 °F 65% 29.97 in 10.0 mi ESE 11.5 mph - 0.00 in   Overcast
10:15 AM 80.6 °F 83.2 °F 68.0 °F 65% 29.97 in 10.0 mi ESE 13.8 mph 19.6 mph 0.00 in   Overcast
10:35 AM 82.4 °F 85.4 °F 68.0 °F 62% 29.96 in 10.0 mi ESE 16.1 mph - 0.00 in   Overcast
10:55 AM 82.4 °F 85.4 °F 68.0 °F 62% 29.96 in 10.0 mi ESE 13.8 mph - 0.00 in   Scattered Clouds
11:15 AM 80.6 °F 83.2 °F 68.0 °F 65% 29.98 in 10.0 mi SE 11.5 mph - 0.00 in   Mostly Cloudy
11:35 AM 80.6 °F 82.7 °F 66.2 °F 61% 29.99 in 10.0 mi SE 9.2 mph - 0.00 in   Overcast
11:55 AM 80.6 °F 82.7 °F 66.2 °F 61% 30.00 in 10.0 mi SE 10.4 mph - 0.00 in   Overcast
12:15 PM 80.6 °F 83.2 °F 68.0 °F 65% 30.00 in 10.0 mi SE 10.4 mph 16.1 mph 0.00 in   Overcast
12:35 PM 82.4 °F 85.4 °F 68.0 °F 62% 29.99 in 10.0 mi SE 12.7 mph 16.1 mph 0.00 in   Mostly Cloudy
12:55 PM 82.4 °F 85.4 °F 68.0 °F 62% 29.99 in 10.0 mi SE 12.7 mph 17.3 mph 0.00 in   Mostly Cloudy
1:35 PM 82.4 °F 85.4 °F 68.0 °F 62% 29.97 in 10.0 mi SE 13.8 mph 20.7 mph 0.00 in   Partly Cloudy
1:55 PM 82.4 °F 86.3 °F 69.8 °F 66% 29.96 in 10.0 mi ESE 12.7 mph - 0.00 in   Scattered Clouds
2:15 PM 82.4 °F 86.3 °F 69.8 °F 66% 29.97 in 10.0 mi SE 10.4 mph 17.3 mph 0.00 in   Mostly Cloudy
2:35 PM 80.6 °F 83.9 °F 69.8 °F 70% 29.97 in 10.0 mi SSE 9.2 mph - 0.00 in   Mostly Cloudy
2:55 PM 78.8 °F - 69.8 °F 74% 29.97 in 6.0 mi SE 10.4 mph - 0.00 in   Light Drizzle
3:15 PM 77.0 °F - 71.6 °F 83% 29.97 in 2.0 mi SE 10.4 mph - 0.00 in   Haze
3:35 PM 77.0 °F - 71.6 °F 83% 29.97 in 10.0 mi SE 8.1 mph - 0.00 in   Overcast
4:15 PM 77.0 °F - 71.6 °F 83% 29.96 in 2.0 mi Calm Calm - 0.00 in Rain Light Rain
4:35 PM 75.2 °F - 71.6 °F 89% 29.96 in 2.5 mi Calm Calm - 0.00 in Rain Light Rain
4:55 PM 77.0 °F - 73.4 °F 89% 29.96 in 3.0 mi Calm Calm - 0.00 in Rain Light Rain
5:15 PM 75.2 °F - 71.6 °F 89% 29.91 in 1.0 mi SSE 10.4 mph 18.4 mph 0.00 in   Overcast
5:35 PM 75.2 °F - 71.6 °F 89% 29.91 in 3.0 mi Calm Calm - 0.00 in Rain Light Rain
5:55 PM 75.2 °F - 71.6 °F 89% 29.92 in 6.0 mi Calm Calm - 0.00 in   Overcast
6:15 PM 77.0 °F - 69.8 °F 78% 29.92 in 10.0 mi Calm Calm - 0.00 in   Scattered Clouds
6:35 PM 78.8 °F - 69.8 °F 74% 29.91 in 10.0 mi Calm Calm - 0.00 in   Mostly Cloudy
6:55 PM 78.8 °F - 71.6 °F 78% 29.91 in 9.0 mi SSE 8.1 mph - 0.00 in   Mostly Cloudy
7:15 PM 78.8 °F - 71.6 °F 78% 29.91 in 10.0 mi South 9.2 mph - 0.00 in   Mostly Cloudy
7:35 PM 78.8 °F - 71.6 °F 78% 29.92 in 10.0 mi Calm Calm - 0.00 in   Mostly Cloudy
7:55 PM 78.8 °F - 71.6 °F 78% 29.92 in 10.0 mi SSE 5.8 mph - 0.00 in   Mostly Cloudy
8:15 PM 78.8 °F - 71.6 °F 78% 29.92 in 9.0 mi South 6.9 mph - 0.00 in   Partly Cloudy
8:35 PM 77.0 °F - 71.6 °F 83% 29.91 in 9.0 mi SSE 4.6 mph - 0.00 in   Clear
8:55 PM 77.0 °F - 71.6 °F 83% 29.91 in 9.0 mi SSE 4.6 mph - 0.00 in   Clear
9:15 PM 77.0 °F - 71.6 °F 83% 29.91 in 10.0 mi SSE 6.9 mph - 0.00 in   Clear
9:35 PM 75.2 °F - 71.6 °F 89% 29.91 in 10.0 mi South 6.9 mph - 0.00 in   Clear
9:55 PM 75.2 °F - 71.6 °F 89% 29.92 in 10.0 mi South 5.8 mph - 0.00 in   Clear
10:15 PM 75.2 °F - 71.6 °F 89% 29.93 in 10.0 mi South 4.6 mph - 0.00 in   Clear
10:35 PM 75.2 °F - 71.6 °F 89% 29.93 in 10.0 mi South 4.6 mph - 0.00 in   Clear
10:55 PM 75.2 °F - 71.6 °F 89% 29.93 in 10.0 mi SSE 3.5 mph - 0.00 in   Clear
11:15 PM 75.2 °F - 71.6 °F 89% 29.93 in 10.0 mi South 6.9 mph - 0.00 in   Clear
11:35 PM 75.2 °F - 71.6 °F 89% 29.93 in 10.0 mi South 6.9 mph - 0.00 in   Clear
11:55 PM 75.2 °F - 71.6 °F 89% 29.93 in 10.0 mi Calm Calm - 0.00 in   Clear